Location: Kühndorf
(50.6090°N, 10.4925°E)
Time: 01:08:50
(UTC+00:00)

Daily predictions for brighter satellites

Satellite Brightness Start Highest point End
(mag) Time Altitude Azimuth Time Altitude Azimuth Time Altitude Azimuth
Cosmos 2333 Rocket 4.4 01:57:29 22° NE 01:57:29 22° NE 01:59:30 10° NE
CENTAUR R/B 4.2 02:05:13 31° N 02:05:13 31° N 02:11:30 10° NE
ACS3 Solar Sail 3.3 01:59:48 10° NNE 02:03:45 31° ENE 02:03:45 31° ENE
USA 234 4.3 02:07:39 10° ESE 02:11:31 39° ESE 02:11:31 39° ESE
Cosmos 2360 Rocket 3.9 02:17:22 28° NE 02:17:22 28° NE 02:20:12 10° NE
Cosmos 2322 Rocket 4.0 02:17:43 28° NE 02:17:43 28° NE 02:20:24 10° NE
SL-16 R/B 4.0 02:24:11 25° NNE 02:24:11 25° NNE 02:26:25 10° NNE
Cosmos 1943 Rocket 4.1 02:24:45 22° NNE 02:25:36 23° NE 02:29:54 10° E
ADEOS Rocket 3.5 02:32:44 10° NNE 02:38:45 67° ENE 02:38:45 67° ENE
CZ-2C R/B 4.2 02:37:05 10° NE 02:41:25 29° E 02:42:20 27° ESE
BREEZE-M DEB (TANK) 4.4 02:53:28 68° SW 02:54:04 70° SSW 03:17:41 10° SE
Cosmos 2219 Rocket 2.8 02:55:05 53° E 02:55:05 53° E 02:59:58 10° NE
USA 59 Rocket 2.7 03:05:02 11° E 03:05:02 11° E 03:05:19 10° E
Cosmos 1727 Rocket 4.5 03:11:08 10° S 03:17:11 58° E 03:23:17 10° NNE
CZ-2D R/B 4.3 03:13:31 10° N 03:14:23 14° N 03:14:23 14° N
USA 267 3.2 03:12:43 10° ENE 03:19:17 80° SE 03:20:18 66° SW
Cosmos 2333 4.3 03:21:23 65° N 03:21:23 65° N 03:26:26 10° NNE
Cosmos 2150 Rocket 4.2 03:23:19 65° NNE 03:23:19 65° NNE 03:27:49 10° NNE
Cosmos 2228 Rocket 3.7 03:26:00 53° ENE 03:26:00 53° ENE 03:30:00 10° NNE
Cosmos 1980 Rocket 4.3 03:27:56 14° NNW 03:27:56 14° NNW 03:29:55 10° N
Cosmos 1269 Rocket 4.1 03:29:01 54° N 03:30:08 73° ENE 03:35:25 10° SSE
H-2A R/B 3.6 03:26:08 10° N 03:28:04 23° N 03:28:04 23° N
Cosmos 2278 Rocket 2.9 03:29:48 24° NNW 03:33:05 51° NE 03:38:34 10° SE
USA 238 DEB 4.1 03:33:04 42° NW 03:33:22 43° NNW 03:40:02 10° NE
USA 238 4.1 03:33:10 43° NW 03:33:28 43° NNW 03:40:09 10° NE
Cosmos 2173 Rocket 4.1 03:30:54 10° N 03:37:02 73° ENE 03:43:07 10° SSE
Cosmos 2333 Rocket 3.0 03:39:31 36° NNW 03:39:31 36° NNW 03:43:51 10° NNE
ADEOS II 4.0 03:38:36 10° N 03:39:55 16° NNW 03:39:55 16° NNW
COSMOS 2455 3.1 03:45:06 48° NW 03:45:08 48° NW 03:51:00 10° NNE
Lacrosse 5 rocket 2.7 03:46:58 25° NE 03:46:58 25° NE 03:48:43 10° NE
Cosmos 1153 Rocket 4.3 03:39:26 10° NNW 03:45:32 65° W 03:51:41 10° S
Cosmos 1939 Rocket 3.5 03:42:59 10° NNE 03:46:46 51° E 03:48:48 24° SSE
Cosmos 2298 Rocket 3.9 03:46:57 65° WNW 03:46:57 65° WNW 03:52:11 10° NNE
ACS3 Solar Sail 2.0 03:42:42 10° N 03:47:53 46° NW 03:47:53 46° NW
Cosmos 2369 Rocket 4.5 03:46:05 10° N 03:49:55 18° NNE 03:53:45 10° ENE
Resurs 1-4 Rocket 4.3 03:47:46 10° NNW 03:48:14 12° NNW 03:48:14 12° NNW
BlueWalker 3 3.1 03:53:51 33° SSE 03:53:51 33° SSE 03:56:05 10° SE
CENTAUR R/B 4.1 03:52:18 20° NW 03:57:06 38° NNE 04:05:14 10° E
USA 234 3.5 03:51:15 10° SSE 03:57:30 46° SW 03:58:52 41° WSW
Cosmos 2123 Rocket 4.4 03:52:34 10° S 03:58:41 64° E 04:04:48 10° NNE
Cosmos 2360 Rocket 2.8 03:59:09 37° NW 03:59:09 37° NW 04:04:10 10° NNE
Cosmos 2322 Rocket 3.0 03:59:31 34° NW 03:59:31 34° NW 04:04:21 10° NNE
Helios 1A Rocket 3.5 03:57:28 10° SE 04:00:43 43° ENE 04:02:41 20° N
Gbstr 26 Del rocket 4.1 03:59:15 33° SSW 04:01:12 51° SSE 04:06:55 10° ENE
Meteor 2-5 Rocket 4.5 03:55:33 10° S 04:01:18 56° E 04:07:02 10° NNE
SL-16 R/B 3.5 04:06:02 23° NNW 04:06:02 23° NNW 04:10:04 10° NNE
Cosmos 44 Rocket 3.4 04:05:02 52° W 04:05:57 62° SW 04:11:02 10° SSE
Cosmos 2016 Rocket 4.2 04:01:54 10° N 04:08:19 76° ENE 04:14:40 10° SSE
Cosmos 1943 Rocket 2.1 04:06:17 21° NNW 04:10:07 89° ENE 04:15:38 10° SSE
H-2A R/B 3.4 04:08:01 10° N 04:11:15 53° NNW 04:11:15 53° NNW
Okean 1-7 3.2 04:13:09 46° NW 04:13:09 46° NW 04:16:39 10° N
Meteor 2-14 Rocket 4.3 04:06:26 10° SSW 04:12:30 65° WNW 04:18:35 10° N
ARGOS 3.3 04:09:03 10° N 04:14:16 49° WNW 04:16:17 33° WSW
PAYLOAD A 4.1 04:09:47 10° N 04:15:08 62° WNW 04:20:23 10° SSW
NOSS 2-1 (C) 2.9 04:14:57 59° S 04:15:24 70° SE 04:18:24 10° NE
Cosmos 1908 Rocket 3.4 04:11:32 10° NNW 04:16:00 79° W 04:20:24 10° S
Cosmos 1140 Rocket 3.5 04:15:56 32° NW 04:18:04 56° WSW 04:23:02 10° S
NOSS 2-1 (D) 2.7 04:19:05 67° SSW 04:19:27 83° SE 04:22:27 10° NE
CZ-2C R/B 2.7 04:14:52 10° N 04:19:38 47° WNW 04:21:32 31° WSW
Timation 2 Rocket 4.0 04:14:49 17° NW 04:20:03 66° WSW 04:26:23 10° SSE
Cosmos 1300 Rocket 3.8 04:16:25 10° N 04:20:46 69° ENE 04:25:03 10° SSE
ADEOS Rocket 4.0 04:18:53 10° N 04:24:20 30° WNW 04:25:40 28° W
Cosmos 2061 Rocket 4.2 04:22:08 10° N 04:28:22 71° ENE 04:34:32 10° SSE
NOSS 3-1 (C) 2.9 04:27:25 24° SW 04:30:24 79° NW 04:36:21 10° NE
Iridium 4 Rocket 2.9 04:26:50 10° N 04:31:15 85° W 04:35:25 10° S
Cosmos 2100 Rocket 4.1 04:25:45 10° NNW 04:31:35 47° W 04:37:25 10° SSW
SJ 16-02 2.9 04:28:14 10° N 04:32:12 34° ENE 04:36:08 10° SE
Cosmos 1190 Rocket 4.5 04:32:47 10° NNW 04:38:03 62° ENE 04:43:15 10° SE
Cosmos 2219 Rocket 2.9 04:36:50 27° W 04:38:39 33° NW 04:43:46 10° NNE
IRS-1D 3.3 04:34:45 10° NNE 04:39:46 85° WNW 04:44:42 10° SSW
SL-24 R/B - RUBIN 2 4.4 04:39:23 27° W 04:41:38 41° NW 04:46:13 10° NNE
NOSS 0 Rocket 3.9 04:38:35 10° SSW 04:44:45 87° ESE 04:50:57 10° NNE
Cosmos 1869 4.0 04:43:48 10° N 04:47:12 46° ENE 04:50:34 10° SSE
COSMOS 2428 2.7 04:42:36 10° SW 04:48:14 61° NW 04:53:53 10° NNE
Cosmos 371 Rocket 4.2 04:46:14 10° NNW 04:50:57 49° ENE 04:55:39 10° SE
USA 59 Rocket -0.5 04:50:47 31° W 04:51:47 43° NW 04:54:37 10° NNE
Cosmos 1459 Rocket 4.5 04:46:54 10° NNW 04:52:42 38° W 04:58:26 10° SSW
Cosmos 2322 3.9 04:50:17 10° SW 04:55:46 48° NW 05:01:18 10° NNE
FengYun 1-2 T 4.3 04:50:49 10° N 04:56:12 54° WNW 05:01:37 10° SW
Cosmos 1954 Rocket 4.3 04:50:59 10° NNW 04:56:13 70° ENE 05:01:22 10° SSE
COSMO-SKYMED 1 2.5 04:54:54 10° S 04:58:57 56° W 05:03:02 10° NNW
Cosmos 407 Rocket 3.7 04:55:05 10° NW 04:59:58 47° WSW 05:04:49 10° S
SKYMED 2 3.9 04:56:13 10° S 05:00:19 41° W 05:04:28 10° NNW
USA 267 3.5 04:55:48 10° ENE 05:02:11 58° NNW 05:07:39 15° W
Cosmos 1484 Rocket 3.0 04:58:51 10° NNE 05:02:25 64° ESE 05:05:55 10° S
Cosmos 1725 Rocket 4.3 04:57:16 10° NNW 05:03:13 45° W 05:09:10 10° SSW
Cosmos 2228 Rocket 4.4 05:03:28 19° WNW 05:04:08 19° WNW 05:07:21 10° NNW
Cosmos 1980 3.7 05:02:16 10° SSW 05:07:56 84° WNW 05:13:39 10° NNE
Cosmos 1656 Rocket 3.9 05:07:34 10° NNW 05:13:16 75° ENE 05:18:57 10° SE
Cosmos 2233 Rocket 4.1 05:08:24 10° NNW 05:14:31 53° W 05:20:34 10° SSW
NOSS 3-1 (A) 3.0 05:09:44 10° SW 05:14:33 85° NW 05:20:30 10° NE
Cosmos 1400 Rocket 4.2 05:11:06 10° N 05:14:38 37° ENE 05:18:06 10° SE
Cosmos 2278 Rocket 2.9 05:11:57 10° NW 05:16:57 33° WSW 05:21:55 10° SSW
Lacrosse 4 Rocket 3.9 05:15:40 10° N 05:17:02 11° NNE 05:18:23 10° NE
Cosmos 1703 Rocket 4.3 05:14:36 10° SW 05:18:27 30° WNW 05:22:21 10° N
Cosmos 2251 Rocket 3.6 05:13:37 10° NNW 05:18:52 58° WSW 05:24:07 10° S
Cosmos 304 Rocket 3.8 05:14:30 10° NNW 05:19:18 84° ENE 05:24:05 10° SSE
Cosmos 1939 Rocket 4.2 05:17:44 10° NNW 05:20:23 18° WNW 05:23:01 10° WSW
NOSS 2-1 (E) 3.5 05:18:53 12° WSW 05:21:38 33° NW 05:24:27 10° NNE
Lacrosse 5 rocket 2.2 05:20:39 13° NW 05:23:07 27° N 05:26:02 10° ENE
Cosmos 2237 Rocket 2.2 05:18:35 10° SW 05:24:14 71° WNW 05:29:55 10° NNE
Cosmos 2333 Rocket 4.0 05:21:32 10° NW 05:24:26 14° NNW 05:27:25 10° N
IGS 5A 3.6 05:21:21 10° NNE 05:25:23 76° E 05:29:24 10° S
Cosmos 2292 Rocket 4.4 05:24:52 10° SW 05:28:58 37° WNW 05:34:09 10° N
BlueWalker 3 4.0 05:28:14 10° WSW 05:29:27 11° SW 05:30:41 10° SSW
ACS3 Solar Sail 3.5 05:28:28 10° NNW 05:30:02 11° NW 05:31:37 10° WNW
Cosmos 2151 Rocket 4.1 05:27:01 10° N 05:31:32 65° ENE 05:35:59 10° SSE
NOSS 7 (E) 4.2 05:29:25 10° NW 05:32:33 89° NNE 05:35:51 10° SE
COSMOS 2455 4.3 05:28:15 10° WNW 05:32:33 20° NNW 05:36:56 10° NNE
Helios 1A Rocket 4.2 05:31:36 10° SW 05:33:39 15° W 05:35:43 10° NW
Meteor 1-24 Rocket 4.5 05:28:46 10° SW 05:33:47 30° WNW 05:38:41 10° N
Cosmos 2242 Rocket 3.5 05:30:24 10° SSW 05:34:46 78° W 05:39:12 10° N
Cosmos 2369 Rocket 2.7 05:29:28 10° NNW 05:35:07 62° NE 05:40:45 10° SE
Cosmos 1624 Rocket 4.2 05:35:19 10° SSW 05:40:30 81° ESE 05:45:42 10° NNE
Cosmos 968 Rocket 4.0 05:36:21 10° NNW 05:41:34 65° ENE 05:46:47 10° SE
Cosmos 2360 Rocket 4.0 05:42:01 10° NW 05:44:38 13° NNW 05:47:14 10° N
Cosmos 2322 Rocket 4.1 05:42:41 10° NW 05:45:03 12° NNW 05:47:27 10° N
Cosmos 1420 Rocket 4.1 05:41:07 10° SW 05:46:19 59° WNW 05:51:34 10° NNE
Gbstr 26 Del rocket 3.8 05:42:20 10° W 05:47:37 84° N 05:54:12 10° E
Cosmos 1674 Rocket 4.0 05:43:20 10° S 05:47:43 69° E 05:52:08 10° NNE
CENTAUR R/B 3.5 05:40:57 10° NW 05:48:59 77° NE 05:58:21 10° SE
ARIANE 5 R/B 3.2 05:44:57 10° NNE 05:49:58 61° ESE 05:55:00 10° S
